This demonstration page uses our WeatherBlox Daily Observations layout. Learn more.

Left ArrowRight Arrow

34.74481, -87.66753

Hourly Observations for February 22, 2020

Temp ( °F °C ) Dew Point ( °F °C ) Humidity (%) Winds ( mph kmh ) Pressure ( in mb ) Visibility ( mi km ) Precip ( " mm )
12:53 am 00:53 Clear 30 -1.1 22 -5.6 72 72 Calm 30.50 1033 10 16 0.00 0.00
1:53 am 01:53 Clear 28 -2.2 22 -5.6 78 78 Calm 30.49 1033 10 16 0.00 0.00
2:53 am 02:53 Clear 28 -2.2 21 -6.1 75 75 Calm 30.47 1032 10 16 0.00 0.00
3:53 am 03:53 Clear 27 -2.8 22 -5.6 81 81 Calm 30.48 1032 10 16 0.00 0.00
4:53 am 04:53 Clear 28 -2.2 21 -6.1 75 75 Calm 30.49 1033 10 16 0.00 0.00
5:53 am 05:53 Clear 25 -3.9 21 -6.1 85 85 Calm 30.50 1033 10 16 0.00 0.00
6:53 am 06:53 Sunny 26 -3.3 22 -5.6 84 84 ESE 3 6 30.49 1033 10 16 0.00 0.00
7:53 am 07:53 Sunny 33 0.6 28 -2.2 82 82 Calm 30.50 1033 10 16 0.00 0.00
8:53 am 08:53 Sunny 38 3.3 26 -3.3 62 62 SE 3 6 30.51 1033 10 16 0.00 0.00
9:53 am 09:53 Sunny 42 5.6 25 -3.9 51 51 Calm 30.50 1033 10 16 0.00 0.00
10:53 am 10:53 Sunny 47 8.3 24 -4.4 41 41 VRB 5 7 30.49 1033 10 16 0.00 0.00
11:53 am 11:53 Sunny 50 10 22 -5.6 33 33 S 5 7 30.46 1032 10 16 0.00 0.00
12:53 pm 12:53 Sunny 53 11.7 22 -5.6 30 30 Calm 30.41 1030 10 16 0.00 0.00
1:53 pm 13:53 Sunny 54 12.2 22 -5.6 29 29 Calm 30.37 1029 10 16 0.00 0.00
2:53 pm 14:53 Sunny 55 12.8 22 -5.6 28 28 VRB 5 7 30.35 1028 10 16 0.00 0.00
3:53 pm 15:53 Sunny 55 12.8 23 -5 29 29 ENE 3 6 30.34 1028 10 16 0.00 0.00
4:53 pm 16:53 Sunny 53 11.7 27 -2.8 37 37 ENE 7 11 30.33 1027 10 16 0.00 0.00
5:53 pm 17:53 Clear 50 10 26 -3.3 39 39 ENE 3 6 30.33 1027 10 16 0.00 0.00
6:53 pm 18:53 Clear 47 8.3 27 -2.8 46 46 SE 3 6 30.33 1027 10 16 0.00 0.00
7:53 pm 19:53 Clear 44 6.7 29 -1.7 55 55 Calm 30.33 1027 10 16 0.00 0.00
8:53 pm 20:53 Clear 41 5 31 -0.6 67 67 Calm 30.33 1027 10 16 0.00 0.00
9:53 pm 21:53 Clear 42 5.6 33 0.6 71 71 Calm 30.32 1027 10 16 0.00 0.00
10:53 pm 22:53 Clear 38 3.3 32 0 79 79 Calm 30.31 1026 10 16 0.00 0.00
11:53 pm 23:53 Clear 37 2.8 31 -0.6 79 79 Calm 30.29 1026 10 16 0.00 0.00

Powered by AerisWeather